Location: Wild Duck Observatory
(38.2456°N, 85.2898°W)
Time: 22:25:12
(UTC-04:00)

Hubble Space Telescope - Visible Passes

Search period start: 16 July 2018 00:00
Search period end: 26 July 2018 00:00
Orbit: 537 x 541 km, 28.5° (Epoch: 16 July)

Date Brightness Start Highest point End Pass type
(mag) Time Alt. Az. Time Alt. Az. Time Alt. Az.
16 Jul 2.5 05:51:53 10° SW 05:54:50 19° S 05:57:46 10° SE visible
17 Jul 2.4 05:41:40 11° SW 05:44:23 20° S 05:47:26 10° SE visible
18 Jul 2.3 05:31:49 14° SW 05:33:55 21° S 05:37:02 10° SE visible
19 Jul 2.3 05:22:02 17° SSW 05:23:29 21° S 05:26:36 10° SE visible
20 Jul 2.2 05:12:20 20° SSW 05:13:02 21° S 05:16:08 10° SE visible
21 Jul 2.3 05:02:44 20° S 05:02:44 20° S 05:05:37 10° SE visible
22 Jul 2.6 04:53:17 17° SSE 04:53:17 17° SSE 04:55:03 10° SE visible
23 Jul 3.1 04:43:59 12° SSE 04:43:59 12° SSE 04:44:25 10° SSE visible
